<?xml version="1.0"?>
<gpx xmlns="http://www.topografix.com/GPX/1/1" xmlns:xsi="http://www.w3.org/2001/XMLSchema-instance" version="1.1" creator="GPX RubyGem 1.0.0 -- http://dougfales.github.io/gpx/" xsi:schemaLocation="http://www.topografix.com/GPX/1/1 http://www.topografix.com/GPX/1/1/gpx.xsd">
  <metadata>
    <name/>
    <time>2026-05-08T10:57:41+00:00</time>
    <bound minlat="90.0" minlon="180.0" maxlat="-90.0" maxlon="-180.0"/>
  </metadata>
  <trk>
    <name/>
    <trkseg>
      <trkpt lat="45.788231" lon="5.015762">
        <time>1970-01-01T00:00:00+00:00</time>
        <ele>178.0</ele>
      </trkpt>
      <trkpt lat="45.788461" lon="5.015583">
        <time>1970-01-01T00:00:00+00:00</time>
        <ele>178.0</ele>
      </trkpt>
      <trkpt lat="45.788497" lon="5.01568">
        <time>1970-01-01T00:00:00+00:00</time>
        <ele>178.0</ele>
      </trkpt>
      <trkpt lat="45.788269" lon="5.015991">
        <time>1970-01-01T00:00:00+00:00</time>
        <ele>178.0</ele>
      </trkpt>
      <trkpt lat="45.787775" lon="5.016517">
        <time>1970-01-01T00:00:00+00:00</time>
        <ele>178.0</ele>
      </trkpt>
      <trkpt lat="45.787599" lon="5.016581">
        <time>1970-01-01T00:00:00+00:00</time>
        <ele>178.0</ele>
      </trkpt>
      <trkpt lat="45.787498" lon="5.016651">
        <time>1970-01-01T00:00:00+00:00</time>
        <ele>178.0</ele>
      </trkpt>
      <trkpt lat="45.78745" lon="5.016753">
        <time>1970-01-01T00:00:00+00:00</time>
        <ele>178.0</ele>
      </trkpt>
      <trkpt lat="45.787416" lon="5.01693">
        <time>1970-01-01T00:00:00+00:00</time>
        <ele>178.0</ele>
      </trkpt>
      <trkpt lat="45.787412" lon="5.017102">
        <time>1970-01-01T00:00:00+00:00</time>
        <ele>178.0</ele>
      </trkpt>
      <trkpt lat="45.787465" lon="5.017359">
        <time>1970-01-01T00:00:00+00:00</time>
        <ele>178.0</ele>
      </trkpt>
      <trkpt lat="45.787465" lon="5.017507">
        <time>1970-01-01T00:00:00+00:00</time>
        <ele>178.0</ele>
      </trkpt>
      <trkpt lat="45.78742" lon="5.01767">
        <time>1970-01-01T00:00:00+00:00</time>
        <ele>178.0</ele>
      </trkpt>
      <trkpt lat="45.787418" lon="5.017746">
        <time>1970-01-01T00:00:00+00:00</time>
        <ele>178.0</ele>
      </trkpt>
      <trkpt lat="45.787139" lon="5.01781">
        <time>1970-01-01T00:00:00+00:00</time>
        <ele>178.0</ele>
      </trkpt>
      <trkpt lat="45.787053" lon="5.017858">
        <time>1970-01-01T00:00:00+00:00</time>
        <ele>178.0</ele>
      </trkpt>
      <trkpt lat="45.787012" lon="5.017949">
        <time>1970-01-01T00:00:00+00:00</time>
        <ele>178.0</ele>
      </trkpt>
      <trkpt lat="45.787016" lon="5.018137">
        <time>1970-01-01T00:00:00+00:00</time>
        <ele>178.0</ele>
      </trkpt>
      <trkpt lat="45.787107" lon="5.018575">
        <time>1970-01-01T00:00:00+00:00</time>
        <ele>178.0</ele>
      </trkpt>
      <trkpt lat="45.787049" lon="5.018604">
        <time>1970-01-01T00:00:00+00:00</time>
        <ele>178.0</ele>
      </trkpt>
      <trkpt lat="45.786923" lon="5.018665">
        <time>1970-01-01T00:00:00+00:00</time>
        <ele>180.0</ele>
      </trkpt>
      <trkpt lat="45.787241" lon="5.019731">
        <time>1970-01-01T00:00:00+00:00</time>
        <ele>180.0</ele>
      </trkpt>
      <trkpt lat="45.787591" lon="5.020315">
        <time>1970-01-01T00:00:00+00:00</time>
        <ele>180.0</ele>
      </trkpt>
      <trkpt lat="45.787609" lon="5.020419">
        <time>1970-01-01T00:00:00+00:00</time>
        <ele>180.0</ele>
      </trkpt>
      <trkpt lat="45.787846" lon="5.020913">
        <time>1970-01-01T00:00:00+00:00</time>
        <ele>180.0</ele>
      </trkpt>
      <trkpt lat="45.787858" lon="5.021071">
        <time>1970-01-01T00:00:00+00:00</time>
        <ele>180.0</ele>
      </trkpt>
      <trkpt lat="45.788126" lon="5.021402">
        <time>1970-01-01T00:00:00+00:00</time>
        <ele>180.0</ele>
      </trkpt>
      <trkpt lat="45.788715" lon="5.022052">
        <time>1970-01-01T00:00:00+00:00</time>
        <ele>180.0</ele>
      </trkpt>
      <trkpt lat="45.789739" lon="5.023172">
        <time>1970-01-01T00:00:00+00:00</time>
        <ele>183.0</ele>
      </trkpt>
      <trkpt lat="45.790209" lon="5.02376">
        <time>1970-01-01T00:00:00+00:00</time>
        <ele>185.0</ele>
      </trkpt>
      <trkpt lat="45.790264" lon="5.02381">
        <time>1970-01-01T00:00:00+00:00</time>
        <ele>185.0</ele>
      </trkpt>
      <trkpt lat="45.790264" lon="5.02381">
        <time>1970-01-01T00:00:00+00:00</time>
        <ele>185.0</ele>
      </trkpt>
      <trkpt lat="45.790209" lon="5.02376">
        <time>1970-01-01T00:00:00+00:00</time>
        <ele>185.0</ele>
      </trkpt>
      <trkpt lat="45.789739" lon="5.023172">
        <time>1970-01-01T00:00:00+00:00</time>
        <ele>183.0</ele>
      </trkpt>
      <trkpt lat="45.788715" lon="5.022052">
        <time>1970-01-01T00:00:00+00:00</time>
        <ele>180.0</ele>
      </trkpt>
      <trkpt lat="45.788126" lon="5.021402">
        <time>1970-01-01T00:00:00+00:00</time>
        <ele>180.0</ele>
      </trkpt>
      <trkpt lat="45.787858" lon="5.021071">
        <time>1970-01-01T00:00:00+00:00</time>
        <ele>180.0</ele>
      </trkpt>
      <trkpt lat="45.787846" lon="5.020913">
        <time>1970-01-01T00:00:00+00:00</time>
        <ele>180.0</ele>
      </trkpt>
      <trkpt lat="45.787609" lon="5.020419">
        <time>1970-01-01T00:00:00+00:00</time>
        <ele>180.0</ele>
      </trkpt>
      <trkpt lat="45.787591" lon="5.020315">
        <time>1970-01-01T00:00:00+00:00</time>
        <ele>180.0</ele>
      </trkpt>
      <trkpt lat="45.787241" lon="5.019731">
        <time>1970-01-01T00:00:00+00:00</time>
        <ele>180.0</ele>
      </trkpt>
      <trkpt lat="45.786923" lon="5.018665">
        <time>1970-01-01T00:00:00+00:00</time>
        <ele>180.0</ele>
      </trkpt>
      <trkpt lat="45.787049" lon="5.018604">
        <time>1970-01-01T00:00:00+00:00</time>
        <ele>178.0</ele>
      </trkpt>
      <trkpt lat="45.787107" lon="5.018575">
        <time>1970-01-01T00:00:00+00:00</time>
        <ele>178.0</ele>
      </trkpt>
      <trkpt lat="45.787016" lon="5.018137">
        <time>1970-01-01T00:00:00+00:00</time>
        <ele>178.0</ele>
      </trkpt>
      <trkpt lat="45.787012" lon="5.017949">
        <time>1970-01-01T00:00:00+00:00</time>
        <ele>178.0</ele>
      </trkpt>
      <trkpt lat="45.787053" lon="5.017858">
        <time>1970-01-01T00:00:00+00:00</time>
        <ele>178.0</ele>
      </trkpt>
      <trkpt lat="45.787139" lon="5.01781">
        <time>1970-01-01T00:00:00+00:00</time>
        <ele>178.0</ele>
      </trkpt>
      <trkpt lat="45.787418" lon="5.017746">
        <time>1970-01-01T00:00:00+00:00</time>
        <ele>178.0</ele>
      </trkpt>
      <trkpt lat="45.78742" lon="5.01767">
        <time>1970-01-01T00:00:00+00:00</time>
        <ele>178.0</ele>
      </trkpt>
      <trkpt lat="45.787465" lon="5.017507">
        <time>1970-01-01T00:00:00+00:00</time>
        <ele>178.0</ele>
      </trkpt>
      <trkpt lat="45.787465" lon="5.017359">
        <time>1970-01-01T00:00:00+00:00</time>
        <ele>178.0</ele>
      </trkpt>
      <trkpt lat="45.787412" lon="5.017102">
        <time>1970-01-01T00:00:00+00:00</time>
        <ele>178.0</ele>
      </trkpt>
      <trkpt lat="45.787416" lon="5.01693">
        <time>1970-01-01T00:00:00+00:00</time>
        <ele>178.0</ele>
      </trkpt>
      <trkpt lat="45.78745" lon="5.016753">
        <time>1970-01-01T00:00:00+00:00</time>
        <ele>178.0</ele>
      </trkpt>
      <trkpt lat="45.787498" lon="5.016651">
        <time>1970-01-01T00:00:00+00:00</time>
        <ele>178.0</ele>
      </trkpt>
      <trkpt lat="45.787599" lon="5.016581">
        <time>1970-01-01T00:00:00+00:00</time>
        <ele>178.0</ele>
      </trkpt>
      <trkpt lat="45.787775" lon="5.016517">
        <time>1970-01-01T00:00:00+00:00</time>
        <ele>178.0</ele>
      </trkpt>
      <trkpt lat="45.788269" lon="5.015991">
        <time>1970-01-01T00:00:00+00:00</time>
        <ele>178.0</ele>
      </trkpt>
      <trkpt lat="45.788497" lon="5.01568">
        <time>1970-01-01T00:00:00+00:00</time>
        <ele>178.0</ele>
      </trkpt>
      <trkpt lat="45.788461" lon="5.015583">
        <time>1970-01-01T00:00:00+00:00</time>
        <ele>178.0</ele>
      </trkpt>
      <trkpt lat="45.788231" lon="5.015762">
        <time>1970-01-01T00:00:00+00:00</time>
        <ele>178.0</ele>
      </trkpt>
    </trkseg>
  </trk>
</gpx>
